Regional Weather Roundup
Issued by NWS Green Bay, WI

Home | Current Version | Previous Version | Graphics & Text | Print | Product List | Glossary Off
Versions: 1 2 3 4 5 6 7 8 9 10 11 12 13 14 15 16 17 18 19 20 21 22 23 24 25 26 27 28 29 30 31 32 33 34 35 36 37 38 39 40 41 42 43 44 45 46 47 48 49 50

000
ASUS43 KGRB 051600
RWRGRB

NORTH-CENTRAL AND NORTHEAST WISCONSIN REGIONAL WEATHER ROUNDUP
NATIONAL WEATHER SERVICE GREEN BAY WI
1100 AM CDT SAT SEP 05 2015

WIZ005-009-010>012-018-019-051700-
NORTH CENTRAL WISCONSIN

CITY           SKY/WX    TMP DP  RH WIND       PRES   REMARKS
IRONWOOD       MOSUNNY   81  72  74 S8        29.99F
MANITOWISH WTR NOT AVBL
ARBOR VITAE    NOT AVBL
EAGLE RIVER    NOT AVBL
LAND O LAKES   NOT AVBL
RHINELANDER    MOSUNNY   77  69  76 SW5       30.09S
PHILLIPS       PTSUNNY   78  70  76 SE5       30.06R
ANTIGO         NOT AVBL
TOMAHAWK       NOT AVBL
MERRILL        NOT AVBL
$$

WIZ013-073-051700-
NORTHEAST WISCONSIN

CITY           SKY/WX    TMP DP  RH WIND       PRES   REMARKS
IRON MOUNTAIN  MOSUNNY   73  66  78 S7        30.07F
MARINETTE      SUNNY     73  64  73 S6        30.07F
$$

WIZ017-030-035>037-045-051700-
CENTRAL WISCONSIN

CITY           SKY/WX    TMP DP  RH WIND       PRES   REMARKS
MEDFORD        NOT AVBL
WAUSAU         SUNNY     75  68  78 S6        30.07S
MOSINEE        SUNNY     77  72  83 VRB5      30.09F
MARSHFIELD     MOSUNNY   78  66  66 SE7       30.07S
WISC RAPIDS    SUNNY     82  67  60 SE6       30.08S
STEVENS POINT  NOT AVBL
WAUPACA        NOT AVBL
SHAWANO        NOT AVBL
CLINTONVILLE   MOSUNNY   77  66  69 S6        30.08R
WAUTOMA        NOT AVBL
$$

WIZ038-039-048-051-051700-
FOX VALLEY

CITY           SKY/WX    TMP DP  RH WIND       PRES   REMARKS
NWS GREEN BAY  PTSUNNY   76  67  73 SE5       30.09S
APPLETON       MOSUNNY   75  66  73 SE6       30.08S
OSHKOSH        SUNNY     77  69  76 S5        30.08S
FOND DU LAC    SUNNY     78  70  76 SE3       30.09S
$$

WIZ022-050-052-051700-
EAST CENTRAL WISCONSIN

CITY           SKY/WX    TMP DP  RH WIND       PRES   REMARKS
EPHRAIM        CLOUDY    74  68  81 CALM      30.08S
STURGEON BAY   CLOUDY    70  66  88 S8        30.12S
MANITOWOC      NOT AVBL
SHEBOYGAN      MOSUNNY   75  69  81 SE3       30.10S
$$

LMZ563-521-522-541>543-051700-
LAKESHORE

STATION/POSITION TIME  TEMP    WIND        PRES    VSBY  WAVE
                       AIR SEA DIR/SP/G                  HT/PER
                 (UTC) (F)     (DEG/KT/KT) (MB)    (MI)  (FT/S)
SHEBOYGAN LKSHOR 1500   62     150/  7/  7 1019.6R
KEWAUNEE LKSHORE 1500   62     170/  7/  7 1018.3R
ALGOMA MARINA    1514          180/  6/  7   N/A
NORTHPORT PIER   1500   67     330/  3/  4 1018.6F
N MID LAKE BUOY  1450   66 67  270/  4/  6 1018.5F         0
S GREEN BAY BUOY 1500   65 68   60/  2/  4 1020.2F
CHAMBERS ISLAND  1500   69      60/  4/  5 1018.6F
MENOMINEE LKSHOR 1500   67     160/  4/  4 1017.7F
$$


USA.gov is the U.S. government's official web portal to all federal, state and local government web resources and services.